[[{"header":{"parameterUnit":"m.s-1","parameterCategory":1,"la1":30.2991,"la2":30.254,"lo1":-89.0895,"lo2":-89.0444,"dy":0.0017,"dx":0.0017,"nx":28,"ny":28,"refTime":"2024-08-23T03:00:00:Z","depth":0,"parameterNumber":2,"parameterNumberName":"U-component_of_WINDS"},"data":[0,0,0,0,0,0,0,0,0,0,0,0,0,0,0,0,0,0,0,0,0,0,0,0,0,0,0,0,0,0,0,0,0,0,0,0,0,0,0,0,0,0,0,0,0,0,0,0,0,0,0,0,0,0,0,0,0,0,-4.1766,-4.1766,0,-4.1771,-4.1771,-4.1772,-4.1688,-4.1685,-4.1683,-4.1681,-4.1686,-4.1688,-4.169,0,0,0,0,0,0,0,0,0,0,0,0,0,-4.1681,-4.1683,-4.1766,-4.1766,-4.1766,-4.1771,-4.1771,-4.1772,-4.1688,-4.1685,-4.1682,-4.168,-4.1685,-4.1688,-4.169,0,0,0,0,0,0,0,0,0,0,0,0,0,-4.1706,-4.1684,-4.1766,-4.1725,-4.1721,-4.1771,-4.1771,-4.1772,-4.1689,-4.1685,-4.1682,-4.1678,-4.1684,-4.1687,-4.1691,-4.178,0,0,-4.1701,-4.1702,0,0,0,0,0,0,0,0,-4.1704,-4.1709,-4.1731,-4.1728,-4.1724,-4.1725,-4.1743,-4.1774,-4.1689,-4.1701,-4.1681,-4.1677,-4.1702,-4.1703,-4.1712,-4.178,-4.178,-4.1701,-4.1703,-4.1705,-4.1706,0,0,0,0,0,0,0,-4.1703,-4.1708,-4.1768,-4.1731,-4.1727,-4.1706,-4.1705,-4.1749,-4.172,-4.17,-4.1694,-4.1695,-4.1699,-4.1709,-4.1711,-4.178,-4.1701,-4.1704,-4.1706,-4.1708,-4.1919,-4.1923,0,0,0,0,0,0,-4.1707,-4.1707,-4.1768,-4.1768,-4.1706,-4.171,-4.171,-4.1728,-4.172,-4.1715,-4.1698,-4.1692,-4.1705,-4.1707,-4.1711,-4.1812,-4.1705,-4.1708,-4.171,-4.1916,-4.192,-4.1924,0,0,0,0,0,0,-4.1705,-4.1713,-4.1768,-4.1736,-4.1741,-4.1715,-4.1737,-4.173,-4.174,-4.1719,-4.1713,-4.1714,-4.1702,-4.1706,-4.1763,-4.1811,-4.1709,-4.1712,-4.1912,-4.1917,-4.1922,-4.2017,0,0,0,0,0,0,-4.1703,-4.1713,-4.1747,-4.1737,-4.1743,-4.182,-4.174,-4.1733,-4.1746,-4.1737,-4.1731,-4.1727,-4.17,-4.1758,-4.1766,-4.1814,-4.1715,-4.1907,-4.1914,-4.192,-4.2009,-4.2025,-4.2038,0,0,0,0,0,-4.1701,-4.1774,-4.1749,-4.1757,-4.1785,-4.1823,-4.1826,-4.1793,-4.175,-4.1783,-4.177,-4.1727,-4.1806,-4.1765,-4.1773,-4.1823,-4.1904,-4.1912,-4.192,-4.2003,-4.2022,-4.2038,0,0,0,0,0,0,-4.1789,-4.1772,-4.1744,-4.1817,-4.1822,-4.1809,-4.1849,-4.1815,-4.1832,-4.1823,-4.1781,-4.1781,-4.1843,-4.1839,-4.1794,-4.1907,-4.1847,-4.1857,-4.1907,-4.1925,-4.1939,-4.1937,-4.1718,0,0,0,0,0,-4.1818,-4.185,-4.1833,-4.1899,-4.1903,-4.1876,-4.1891,-4.1865,-4.1869,-4.1871,-4.1861,-4.1866,-4.1891,-4.1908,-4.1931,-4.201,-4.2006,-4.2048,-4.2062,-4.2074,-4.2082,-4.2121,-4.2139,-4.1951,-4.1951,-4.195,0,0,-4.1876,-4.187,-4.1893,-4.1916,-4.1917,-4.195,-4.1878,-4.1917,-4.1941,-4.1876,-4.1928,-4.1922,-4.1924,-4.1991,-4.2021,-4.199,-4.2134,-4.2085,-4.2094,-4.2096,-4.2131,-4.2149,-4.2165,-4.1956,-4.1955,-4.1954,0,0,-4.1998,-4.1999,-4.2052,-4.2054,-4.2056,-4.2038,-4.2051,-4.2043,-4.2036,-4.2088,-4.2039,-4.2068,-4.2113,-4.2116,-4.2123,-4.2247,-4.2207,-4.2256,-4.233,-4.2368,-4.2383,-4.2396,-4.2437,-4.2452,-4.2265,-4.2265,-4.2265,0,-4.207,-4.2118,-4.2083,-4.2125,-4.2135,-4.2079,-4.2132,-4.2136,-4.2146,-4.2154,-4.212,-4.2174,-4.2172,-4.2238,-4.2268,-4.2277,-4.2289,-4.2254,-4.2384,-4.2396,-4.2408,-4.2446,-4.2462,-4.227,-4.227,-4.2269,-4.2269,0,-4.2205,-4.2239,-4.2282,-4.2292,-4.2308,-4.2355,-4.2326,-4.2347,-4.232,-4.2306,-4.2358,-4.2354,-4.2373,-4.2388,-4.2363,-4.245,-4.243,-4.2391,-4.2329,-4.2432,-4.2467,-4.2482,-4.2278,-4.2276,-4.2275,-4.2273,0,0,-4.2381,-4.2371,-4.2387,-4.239,-4.2389,-4.2414,-4.2459,-4.2478,-4.2494,-4.2504,-4.2538,-4.2578,-4.2541,-4.255,-4.2525,-4.2559,-4.2653,-4.2515,-4.2514,-4.2538,-4.2746,-4.2773,-4.2791,-4.2629,-4.2631,-4.2634,-4.2744,0,-4.2497,-4.2571,-4.2541,-4.2617,-4.2647,-4.2595,-4.2633,-4.2636,-4.2624,-4.2647,-4.2634,-4.2661,-4.2612,-4.2617,-4.2649,-4.2635,-4.2694,-4.2627,-4.2658,-4.266,-4.2655,-4.281,-4.2838,-4.2943,-4.2758,-4.2761,-4.2763,0,-4.2641,-4.2655,-4.2735,-4.2726,-4.2738,-4.2773,-4.2787,-4.2811,-4.2813,-4.2801,-4.2811,-4.2778,-4.282,-4.2761,-4.2817,-4.2772,-4.2784,-4.2779,-4.2782,-4.2781,-4.2715,-4.2809,-4.2976,-4.299,-4.2785,-4.2783,-4.2781,0,-4.2757,-4.2797,-4.2848,-4.2853,-4.2846,-4.2871,-4.2869,-4.2868,-4.2881,-4.2894,-4.2901,-4.2919,-4.2928,-4.2943,-4.2915,-4.2875,-4.2974,-4.2913,-4.2964,-4.2965,-4.2984,-4.2982,-4.3152,-4.2998,-4.2998,-4.2998,-4.2997,0,-4.2888,-4.2938,-4.29,-4.2932,-4.2985,-4.2951,-4.3005,-4.2997,-4.2997,-4.3025,-4.2983,-4.301,-4.2974,-4.2998,-4.2977,-4.3025,-4.303,-4.3021,-4.3014,-4.3023,-4.3023,-4.3027,-4.3017,-4.3002,-4.3001,-4.3,-4.2999,0,-4.3025,-4.3003,-4.3055,-4.3044,-4.3042,-4.3082,-4.3071,-4.31,-4.3085,-4.3122,-4.3128,-4.3105,-4.3131,-4.3106,-4.3131,-4.3117,-4.318,-4.3164,-4.3179,-4.3173,-4.3223,-4.3218,-4.3398,-4.3418,-4.3255,-4.3257,-4.3258,0,-4.3108,-4.3145,-4.3137,-4.3153,-4.3154,-4.318,-4.3193,-4.3161,-4.3175,-4.318,-4.3207,-4.323,-4.3245,-4.3289,-4.3274,-4.3293,-4.3275,-4.3337,-4.3277,-4.3284,-4.3272,-4.3269,-4.3271,-4.3348,-4.335,-4.3352,-4.3353,0,-4.3256,-4.3243,-4.3263,-4.3279,-4.3295,-4.3306,-4.3314,-4.3329,-4.3296,-4.3315,-4.3341,-4.3353,-4.3378,-4.34,-4.3414,-4.3411,-4.3376,-4.3372,-4.3384,-4.3392,-4.3397,-4.3391,-4.3208,-4.3367,-4.3366,-4.3365,-4.3364,-4.3364,-4.3366,-4.3396,-4.3394,-4.3417,-4.342,-4.3428,-4.3453,-4.3442,-4.3462,-4.3479,-4.346,-4.3491,-4.3491,-4.3506,-4.3508,-4.3531,-4.3505,-4.3523,-4.3527,-4.3531,-4.3537,-4.3397,-4.3534,-4.3534,-4.3533,-4.3533,-4.3532,0,-4.3509,-4.3506,-4.3528,-4.3539,-4.3557,-4.3524,-4.3531,-4.3548,-4.3575,-4.3579,-4.3595,-4.3624,-4.3645,-4.3632,-4.365,-4.3671,-4.3655,-4.3676,-4.3672,-4.3672,-4.3561,-4.3547,-4.3688,-4.3688,-4.3688,-4.3688,-4.3688,-4.3688,-4.3586,-4.3632,-4.3619,-4.3666,-4.3663,-4.3692,-4.3698,-4.3705,-4.3707,-4.3741,-4.3758,-4.375,-4.3746,-4.3763,-4.3781,-4.3777,-4.3784,-4.381,-4.38,-4.3696,-4.368,-4.3665,-4.3652,-4.3813,-4.3813,-4.3908,-4.3909,-4.391]},{"header":{"parameterUnit":"m.s-1","parameterCategory":1,"la1":30.2991,"la2":30.254,"lo1":-89.0895,"lo2":-89.0444,"dy":0.0017,"dx":0.0017,"nx":28,"ny":28,"refTime":"2024-08-23T03:00:00:Z","depth":0,"parameterNumber":3,"parameterNumberName":"V-component_of_WINDS"},"data":[0,0,0,0,0,0,0,0,0,0,0,0,0,0,0,0,0,0,0,0,0,0,0,0,0,0,0,0,0,0,0,0,0,0,0,0,0,0,0,0,0,0,0,0,0,0,0,0,0,0,0,0,0,0,0,0,0,0,2.7011,2.7011,0,2.7018,2.7019,2.7019,2.6987,2.6986,2.6985,2.6984,2.6991,2.6992,2.6993,0,0,0,0,0,0,0,0,0,0,0,0,0,2.6967,2.6968,2.7011,2.7011,2.7011,2.7018,2.7019,2.7019,2.6987,2.6986,2.6985,2.6984,2.6991,2.6992,2.6993,0,0,0,0,0,0,0,0,0,0,0,0,0,2.6982,2.6969,2.7011,2.6996,2.6995,2.7018,2.7019,2.7019,2.6987,2.6986,2.6985,2.6983,2.699,2.6992,2.6993,2.7031,0,0,2.6998,2.6999,0,0,0,0,0,0,0,0,2.6981,2.6983,2.6998,2.6997,2.6996,2.7,2.7006,2.7023,2.6988,2.699,2.6984,2.6983,2.6995,2.6996,2.7001,2.7031,2.7031,2.6998,2.6999,2.7,2.7,0,0,0,0,0,0,0,2.698,2.6983,2.7014,2.6998,2.6997,2.6989,2.6989,2.7009,2.7,2.699,2.6988,2.6989,2.6994,2.6999,2.7001,2.7031,2.6998,2.6999,2.7,2.7001,2.7093,2.7095,0,0,0,0,0,0,2.6981,2.6982,2.7013,2.7014,2.6985,2.6991,2.6991,2.7,2.7,2.6999,2.699,2.6988,2.6997,2.6999,2.7001,2.7044,2.7,2.7001,2.7002,2.7092,2.7094,2.7095,0,0,0,0,0,0,2.698,2.6984,2.7013,2.6998,2.7001,2.6993,2.7003,2.7001,2.7006,2.7,2.6999,2.6997,2.6996,2.6998,2.7024,2.7044,2.7002,2.7003,2.709,2.7092,2.7094,2.7133,0,0,0,0,0,0,2.6979,2.6984,2.6998,2.6998,2.7002,2.7036,2.7005,2.7002,2.7009,2.7006,2.7006,2.7005,2.6995,2.7021,2.7025,2.7046,2.7004,2.7088,2.7091,2.7094,2.7129,2.7136,2.7141,0,0,0,0,0,2.6978,2.7008,2.6999,2.7003,2.7019,2.7037,2.7039,2.7028,2.7011,2.7025,2.7021,2.7005,2.7042,2.7024,2.7028,2.7049,2.7087,2.709,2.7093,2.7127,2.7135,2.7141,0,0,0,0,0,0,2.701,2.7008,2.6998,2.7029,2.7034,2.7032,2.7049,2.7037,2.7046,2.7042,2.7027,2.7028,2.7056,2.7055,2.7036,2.7086,2.7061,2.7065,2.7085,2.7093,2.7098,2.7098,2.7006,0,0,0,0,0,2.7021,2.7037,2.7034,2.7062,2.7065,2.7057,2.7064,2.7056,2.7059,2.7061,2.7059,2.7063,2.7076,2.7084,2.7095,2.713,2.7129,2.7146,2.7152,2.7157,2.7161,2.7179,2.7186,2.7106,2.7106,2.7106,0,0,2.7044,2.7044,2.7055,2.7068,2.7071,2.7087,2.7059,2.7077,2.7088,2.7064,2.7087,2.7086,2.709,2.712,2.7133,2.712,2.7183,2.7161,2.7165,2.7166,2.7183,2.7191,2.7198,2.7109,2.7108,2.7108,0,0,2.7093,2.7095,2.7119,2.7122,2.7127,2.7122,2.7128,2.7128,2.7127,2.7151,2.7133,2.7146,2.7168,2.7171,2.7176,2.7228,2.7213,2.7232,2.7263,2.7281,2.7287,2.7293,2.7311,2.7318,2.7236,2.7236,2.7236,0,2.712,2.7144,2.7132,2.7152,2.7159,2.7138,2.7162,2.7166,2.7174,2.7178,2.7164,2.7192,2.7193,2.7223,2.7236,2.7241,2.7247,2.7231,2.7287,2.7293,2.7298,2.7315,2.7322,2.7238,2.7238,2.7238,2.7238,0,2.7177,2.7194,2.7212,2.7222,2.723,2.7252,2.7244,2.7254,2.7245,2.7241,2.7266,2.7266,2.7277,2.7284,2.7275,2.7314,2.7306,2.729,2.7265,2.7308,2.7324,2.733,2.7242,2.7241,2.724,2.724,0,0,2.7245,2.7249,2.7256,2.726,2.7264,2.7277,2.7298,2.731,2.7318,2.7325,2.7342,2.7361,2.7347,2.7352,2.7344,2.736,2.7401,2.7342,2.7341,2.7352,2.7443,2.7455,2.7463,2.7391,2.7392,2.7393,2.7443,0,2.7293,2.733,2.7321,2.7356,2.7372,2.7353,2.7372,2.7376,2.7374,2.7386,2.7383,2.7397,2.7377,2.738,2.7395,2.7392,2.7419,2.7389,2.7406,2.7407,2.7405,2.7471,2.7483,2.7529,2.7449,2.745,2.7451,0,2.7354,2.7364,2.7401,2.7404,2.741,2.7427,2.7437,2.7449,2.7454,2.7451,2.7458,2.7446,2.7467,2.7442,2.747,2.745,2.7457,2.7457,2.7458,2.7459,2.7431,2.7473,2.7544,2.7551,2.7461,2.746,2.7459,0,2.74,2.7422,2.7448,2.7452,2.7456,2.7468,2.747,2.7473,2.7481,2.749,2.7495,2.7506,2.7512,2.7521,2.7512,2.7495,2.7542,2.7516,2.7539,2.754,2.7549,2.7549,2.7622,2.7555,2.7555,2.7555,2.7554,0,2.7454,2.7477,2.7469,2.7484,2.751,2.75,2.7526,2.7526,2.7529,2.7544,2.7529,2.7543,2.7532,2.7545,2.7539,2.7563,2.7566,2.7564,2.7562,2.7565,2.7565,2.7568,2.7565,2.7556,2.7556,2.7556,2.7555,0,2.7509,2.7504,2.7531,2.7533,2.7534,2.7553,2.7554,2.7568,2.7565,2.7585,2.7588,2.7583,2.7598,2.7591,2.7607,2.7602,2.7633,2.7627,2.7632,2.763,2.7653,2.7651,2.7731,2.7741,2.7668,2.7669,2.7669,0,2.7543,2.7561,2.7566,2.7575,2.7578,2.7594,2.7602,2.7593,2.7602,2.7609,2.7623,2.7637,2.7647,2.7672,2.767,2.7682,2.7675,2.7702,2.7677,2.768,2.7675,2.7674,2.7676,2.7707,2.7708,2.7709,2.7709,0,2.7605,2.7602,2.7615,2.7628,2.7638,2.7647,2.7655,2.7664,2.7655,2.7666,2.7681,2.769,2.7706,2.772,2.7731,2.7732,2.7719,2.7718,2.7724,2.7727,2.7729,2.7728,2.7645,2.7716,2.7715,2.7715,2.7714,2.7714,2.7651,2.7666,2.7672,2.7687,2.7692,2.77,2.7714,2.7713,2.7726,2.7739,2.7733,2.7751,2.7756,2.7769,2.7772,2.7786,2.7775,2.7784,2.7786,2.7788,2.7791,2.7727,2.7788,2.7788,2.7788,2.7788,2.7788,0,2.7712,2.7715,2.7729,2.7741,2.7753,2.7741,2.7749,2.776,2.7776,2.7782,2.7793,2.7811,2.7825,2.7824,2.7837,2.7848,2.7842,2.7851,2.785,2.7851,2.78,2.7794,2.7856,2.7856,2.7856,2.7856,2.7856,2.7856,2.7745,2.777,2.7768,2.7796,2.7799,2.7817,2.7823,2.783,2.7835,2.7856,2.7868,2.7867,2.787,2.7883,2.7895,2.7895,2.79,2.7911,2.7908,2.7861,2.7854,2.7848,2.7841,2.7912,2.7912,2.7957,2.7957,2.7958]}]]